Location: Newark
(60.6561°N, 46.5772°E)
Time: 22:47:13
(UTC+00:00)

Tiros 1 despin weight - Pass Details

Date: 22 October 2019
Orbit: 594 x 642 km, 48.2° (Epoch: 16 November)

Event Time Altitude Azimuth Distance (km) Brightness Sun altitude
Rises 21:53:27 0° 217° (SW) 2,928 - -38.6°
Reaches altitude 10° 21:56:45 10° 192° (SSW) 2,028 - -38.5°
Maximum altitude 21:59:11 14° 161° (SSE) 1,773 - -38.3°
Drops below altitude 10° 22:01:36 10° 130° (SE) 2,036 - -38.2°
Sets 22:04:56 0° 106° (ESE) 2,948 - -38.0°
